TimeCST,TemperatureF,Dew PointF,Humidity,Sea Level PressureIn,VisibilityMPH,Wind Direction,Wind SpeedMPH,Gust SpeedMPH,PrecipitationIn,Events,Conditions,WindDirDegrees,DateUTC
12:15 AM,48.2,35.6,62,30.16,10.0,South,4.6,-,N/A,,Clear,170,2013-03-04 06:15:00
12:35 AM,46.4,37.4,71,30.16,10.0,South,3.5,-,N/A,,Unknown,180,2013-03-04 06:35:00
12:55 AM,46.4,37.4,71,30.16,10.0,South,3.5,-,N/A,,Clear,170,2013-03-04 06:55:00
1:35 AM,46.4,37.4,71,30.14,10.0,South,5.8,-,N/A,,Clear,170,2013-03-04 07:35:00
1:55 AM,46.4,35.6,66,30.14,10.0,SSE,5.8,-,N/A,,Clear,160,2013-03-04 07:55:00
2:15 AM,46.4,35.6,66,30.14,10.0,SSE,5.8,-,N/A,,Clear,160,2013-03-04 08:15:00
2:35 AM,46.4,35.6,66,30.13,10.0,SSE,4.6,-,N/A,,Clear,160,2013-03-04 08:35:00
2:55 AM,46.4,37.4,71,30.13,10.0,SSE,4.6,-,N/A,,Clear,160,2013-03-04 08:55:00
3:15 AM,46.4,37.4,71,30.13,10.0,SSE,5.8,-,N/A,,Clear,150,2013-03-04 09:15:00
3:35 AM,48.2,37.4,66,30.13,10.0,SSE,6.9,-,N/A,,Clear,150,2013-03-04 09:35:00
3:55 AM,48.2,37.4,66,30.12,10.0,SSE,5.8,-,N/A,,Clear,150,2013-03-04 09:55:00
4:15 AM,48.2,37.4,66,30.13,10.0,South,5.8,-,N/A,,Clear,170,2013-03-04 10:15:00
4:35 AM,48.2,39.2,71,30.13,10.0,SSE,6.9,-,N/A,,Clear,160,2013-03-04 10:35:00
4:55 AM,48.2,39.2,71,30.12,10.0,SSE,8.1,-,N/A,,Clear,160,2013-03-04 10:55:00
5:15 AM,48.2,37.4,66,30.11,10.0,SSE,8.1,-,N/A,,Clear,160,2013-03-04 11:15:00
5:55 AM,46.4,39.2,76,30.12,10.0,SE,5.8,-,N/A,,Clear,140,2013-03-04 11:55:00
6:15 AM,48.2,39.2,71,30.11,10.0,SSE,9.2,-,N/A,,Clear,150,2013-03-04 12:15:00
6:35 AM,48.2,39.2,71,30.12,10.0,SSE,9.2,-,N/A,,Clear,150,2013-03-04 12:35:00
6:55 AM,50.0,39.2,66,30.13,10.0,SE,5.8,-,N/A,,Clear,140,2013-03-04 12:55:00
7:15 AM,50.0,41.0,71,30.13,10.0,SSE,5.8,-,N/A,,Clear,150,2013-03-04 13:15:00
7:35 AM,50.0,41.0,71,30.13,10.0,SSE,5.8,-,N/A,,Clear,150,2013-03-04 13:35:00
7:55 AM,51.8,41.0,67,30.13,10.0,SSE,5.8,-,N/A,,Clear,160,2013-03-04 13:55:00
8:15 AM,51.8,42.8,71,30.14,10.0,SSE,6.9,-,N/A,,Clear,150,2013-03-04 14:15:00
8:35 AM,55.4,44.6,67,30.14,10.0,SSE,9.2,-,N/A,,Clear,160,2013-03-04 14:35:00
8:55 AM,57.2,44.6,63,30.14,10.0,SSE,11.5,-,N/A,,Clear,160,2013-03-04 14:55:00
9:15 AM,59.0,44.6,59,30.15,10.0,South,9.2,17.3,N/A,,Clear,170,2013-03-04 15:15:00
9:35 AM,60.8,46.4,59,30.14,10.0,SSE,13.8,23.0,N/A,,Clear,160,2013-03-04 15:35:00
9:55 AM,62.6,46.4,55,30.13,10.0,South,17.3,24.2,N/A,,Clear,170,2013-03-04 15:55:00
10:15 AM,62.6,46.4,55,30.13,10.0,South,11.5,21.9,N/A,,Scattered Clouds,170,2013-03-04 16:15:00
10:35 AM,64.4,46.4,52,30.12,9.0,South,12.7,23.0,N/A,,Partly Cloudy,180,2013-03-04 16:35:00
10:55 AM,64.4,46.4,52,30.12,10.0,South,15.0,25.3,N/A,,Mostly Cloudy,170,2013-03-04 16:55:00
11:15 AM,64.4,46.4,52,30.11,10.0,South,16.1,24.2,N/A,,Scattered Clouds,180,2013-03-04 17:15:00
11:35 AM,66.2,46.4,49,30.10,9.0,South,15.0,23.0,N/A,,Scattered Clouds,190,2013-03-04 17:35:00
11:55 AM,66.2,46.4,49,30.10,10.0,South,15.0,24.2,N/A,,Mostly Cloudy,170,2013-03-04 17:55:00
12:15 PM,64.4,46.4,52,30.09,10.0,South,12.7,21.9,N/A,,Overcast,180,2013-03-04 18:15:00
12:55 PM,66.2,46.4,49,30.07,10.0,South,12.7,24.2,N/A,,Overcast,190,2013-03-04 18:55:00
1:15 PM,66.2,46.4,49,30.06,10.0,South,13.8,25.3,N/A,,Mostly Cloudy,170,2013-03-04 19:15:00
1:35 PM,66.2,48.2,52,30.05,10.0,South,15.0,24.2,N/A,,Overcast,180,2013-03-04 19:35:00
1:55 PM,66.2,48.2,52,30.04,10.0,South,13.8,25.3,N/A,,Overcast,180,2013-03-04 19:55:00
2:15 PM,68.0,48.2,49,30.03,10.0,South,16.1,23.0,N/A,,Overcast,180,2013-03-04 20:15:00
2:35 PM,66.2,48.2,52,30.02,10.0,South,12.7,25.3,N/A,,Mostly Cloudy,180,2013-03-04 20:35:00
2:55 PM,68.0,48.2,49,30.02,10.0,South,15.0,21.9,N/A,,Overcast,180,2013-03-04 20:55:00
3:15 PM,68.0,48.2,49,30.02,10.0,South,13.8,23.0,N/A,,Overcast,170,2013-03-04 21:15:00
3:35 PM,68.0,48.2,49,30.02,10.0,South,15.0,20.7,N/A,,Overcast,170,2013-03-04 21:35:00
3:55 PM,68.0,50.0,52,30.02,10.0,South,16.1,20.7,N/A,,Mostly Cloudy,180,2013-03-04 21:55:00
4:15 PM,68.0,51.8,56,30.01,9.0,South,12.7,21.9,N/A,,Mostly Cloudy,180,2013-03-04 22:15:00
4:35 PM,66.2,51.8,60,30.01,10.0,South,16.1,26.5,N/A,,Mostly Cloudy,180,2013-03-04 22:35:00
4:55 PM,66.2,51.8,60,30.01,10.0,South,15.0,20.7,N/A,,Mostly Cloudy,190,2013-03-04 22:55:00
5:15 PM,66.2,51.8,60,30.01,10.0,South,13.8,19.6,N/A,,Overcast,180,2013-03-04 23:15:00
5:35 PM,66.2,51.8,60,30.00,10.0,South,11.5,18.4,N/A,,Overcast,170,2013-03-04 23:35:00
5:55 PM,64.4,51.8,64,30.00,10.0,South,10.4,-,N/A,,Unknown,170,2013-03-04 23:55:00
6:15 PM,64.4,53.6,68,30.00,10.0,South,11.5,-,N/A,,Mostly Cloudy,170,2013-03-05 00:15:00
6:35 PM,64.4,53.6,68,30.01,10.0,South,9.2,-,N/A,,Overcast,170,2013-03-05 00:35:00
6:55 PM,64.4,53.6,68,30.00,10.0,South,12.7,18.4,N/A,,Overcast,170,2013-03-05 00:55:00
7:15 PM,64.4,53.6,68,29.99,10.0,SSE,12.7,17.3,N/A,,Mostly Cloudy,160,2013-03-05 01:15:00
7:35 PM,62.6,53.6,72,29.99,10.0,South,9.2,17.3,N/A,,Partly Cloudy,170,2013-03-05 01:35:00
7:55 PM,62.6,53.6,72,30.00,10.0,South,8.1,16.1,N/A,,Scattered Clouds,170,2013-03-05 01:55:00
8:15 PM,62.6,53.6,72,29.98,10.0,SSE,12.7,16.1,N/A,,Partly Cloudy,160,2013-03-05 02:15:00
8:35 PM,62.6,53.6,72,29.99,10.0,South,9.2,17.3,N/A,,Partly Cloudy,170,2013-03-05 02:35:00
8:55 PM,62.6,53.6,72,29.99,10.0,South,12.7,18.4,N/A,,Mostly Cloudy,170,2013-03-05 02:55:00
9:15 PM,62.6,55.4,77,29.98,10.0,South,15.0,19.6,N/A,,Mostly Cloudy,170,2013-03-05 03:15:00
9:35 PM,62.6,55.4,77,29.99,10.0,South,11.5,17.3,N/A,,Overcast,170,2013-03-05 03:35:00
9:55 PM,62.6,55.4,77,29.99,10.0,South,11.5,18.4,N/A,,Mostly Cloudy,170,2013-03-05 03:55:00
10:15 PM,62.6,55.4,77,30.00,10.0,South,11.5,-,N/A,,Mostly Cloudy,170,2013-03-05 04:15:00
10:35 PM,62.6,55.4,77,29.99,10.0,SSE,11.5,18.4,N/A,,Scattered Clouds,160,2013-03-05 04:35:00
10:55 PM,62.6,55.4,77,29.98,10.0,South,11.5,-,N/A,,Scattered Clouds,170,2013-03-05 04:55:00
11:15 PM,62.6,55.4,77,29.98,10.0,South,11.5,17.3,N/A,,Scattered Clouds,170,2013-03-05 05:15:00
11:35 PM,62.6,55.4,77,29.98,10.0,South,9.2,-,N/A,,Clear,170,2013-03-05 05:35:00
11:55 PM,62.6,55.4,77,29.98,10.0,South,10.4,-,N/A,,Clear,170,2013-03-05 05:55:00